AirNav   Phillips 66 Aviation Fuel
 
 1328 users online  

8U0 Ryegate Airport
Ryegate, Montana, USA

GOING TO RYEGATE?


FAA INFORMATION EFFECTIVE 16 AUGUST 2018

Location

FAA Identifier: 8U0
Lat/Long: 46-17-25.7000N / 109-14-51.7000W
46-17.428333N / 109-14.861667W
46.2904722 / -109.2476944
(estimated)
Elevation: 3689 ft. / 1124 m (estimated)
Variation: 15E (1985)
From city: 1 mile S of RYEGATE, MT
Time zone: UTC -6 (UTC -7 during Standard Time)
Zip code: 59074

Airport Operations

Airport use: Open to the public
Activation date: 10/1964
Control tower: no
ARTCC: SALT LAKE CITY CENTER
FSS: GREAT FALLS FLIGHT SERVICE STATION
NOTAMs facility: GTF (NOTAM-D service available)
Attendance: UNATNDD
Wind indicator: yes
Segmented circle: yes
Beacon: white (unlighted land airport)
ROTG BCN LCTD ATOP 51 FT TWR 1100 FT W OF RY 07/25 END & 900 FT S OF EXTNDD CNTRLN. Operates sunset to sunrise.

Airport Communications

CTAF: 122.9

Nearby radio navigation aids

VOR radial/distance  VOR name  Freq  Var
BILr304/38.8BILLINGS VORTAC114.5014E

 
NDB name  Hdg/Dist  Freq  Var  ID
HARLOWTON093/25.724217EHWQ .... .-- --.-
ROUNDUP232/30.836217ERPX .-. .--. -..-

Airport Services

Parking: tiedowns
Airframe service: NONE
Powerplant service: NONE
Bottled oxygen: NONE
Bulk oxygen: NONE

Runway Information

Runway 7/25

Dimensions: 3440 x 100 ft. / 1049 x 30 m
Surface: turf, in fair condition
SFC COND ROUGH.
Runway edge markings: 07/25 MKD BY WHITE CONES FULL LENGTH.
RUNWAY 7  RUNWAY 25
Latitude: 46-17.416320N46-17.438783N
Longitude: 109-15.268840W109-14.452857W
Elevation: 3689.0 ft.3682.0 ft.
Gradient: 0.4%0.4%
Traffic pattern: leftleft
Runway heading: 073 magnetic, 088 true253 magnetic, 268 true

Airport Ownership and Management from official FAA records

Ownership: Publicly-owned
Owner: MONTANA AERONAUTICS DIVISION
PO BOX 200507
HELENA, MT 59620-0507
Phone 406-444-2506
Manager: TIM CONWAY
BOX 200507
HELENA, MT 59620-0507
Phone 406-444-2506

Airport Operational Statistics

Aircraft operations: 100/year *
100% transient general aviation
* for 12-month period ending 07 August 2015

Additional Remarks

NO SNOW REMOVAL.

Instrument Procedures

There are no published instrument procedures at 8U0.

Some nearby airports with instrument procedures:

KRPX - Roundup Airport (31 nm E)
6S8 - Laurel Municipal Airport (41 nm SE)
KBIL - Billings Logan International Airport (41 nm SE)
6S0 - Big Timber Airport (42 nm SW)
KLWT - Lewistown Municipal Airport (46 nm N)
 
Loc | Ops | Rwys | IFR | FBO | Links
Com | Nav | Svcs | Stats | Notes


 
Area around 8U0 (Ryegate Airport)
 
Road maps at: MapQuest Bing Google
 
Aerial photo
WARNING: Photo may not be current or correct
Aerial photo of 8U0 (Ryegate Airport)
Photo courtesy of Chris Boyer, www.kestrelaerial.com/
Photo taken 25-Oct-2005

Do you have a better or more recent aerial photo of Ryegate Airport that you would like to share? If so, please send us your photo.

 
Sectional chart

 
Airport distance calculator
Flying to Ryegate Airport? Find the distance to fly.

From to 8U0

Sunrise and sunset
Times for 17-Aug-2018
 Local
(UTC-6)
 Zulu
(UTC)
Morning civil twilight05:4711:47
Sunrise06:1912:19
Sunset20:2302:23
Evening civil twilight20:5502:55

Current date and time
Zulu (UTC)  17-Aug-2018 21:02:39
Local (UTC-6)  17-Aug-2018 15:02:39
 
METAR
KRPX 
31nm E 
SuperAWOS
171955Z AUTO 04005KT 10SM 33/06 A2999
KMVH 
35nm N 
172055Z AUTO 35008KT 9SM CLR 31/02 A3017 RMK AO2
KBIL 
41nm SE 
172053Z 21007KT 10SM FEW110 FEW180 34/02 A3007 RMK AO2 SLP136 T03440017 56015
K6S0 
42nm SW 
172055Z AUTO 08005KT 10SM CLR 31/03 A3014 RMK A01
KLWT 
45nm N 
172054Z AUTO 00000KT 7SM CLR 30/04 A3013 RMK AO2 SLP163 T03000044 56009
TAF
KBIL 
41nm SE 
171731Z 1718/1818 23010KT P6SM FEW100 SCT150 FM172100 VRB06KT P6SM FEW100 SCT150 FM180300 26011KT P6SM VCTS SCT100CB BKN150 FM181200 27014KT P6SM VCTS SCT060CB BKN100
KLWT 
45nm N 
171755Z 1718/1818 14006KT 6SM FU SCT100 BKN150 FM172100 VRB05KT 6SM FU SCT080 BKN130 FM180600 21007KT P6SM VCSH BKN060 OVC100
NOTAMs
Click for the latest NOTAMs
NOTAMs are issued by the DoD/FAA and will open in a separate window not controlled by AirNav.

 

 
 

Would you like to see your business listed on this page?

 If your business provides an interesting product or service to pilots, flight crews, aircraft, or users of the Ryegate Airport, you should consider listing it here.  To start the listing process, click on the button below
 
Add a business
 

Other Pages about Ryegate Airport

Update a link
 
Copyright © AirNav, LLC. All rights reserved. Privacy Policy  Contact